Temp_Advection
nan nan nan nan nan nan nan nan nan nan nan nan nan nan nan nan nan nan nan nan nan nan nan nan nan nan nan nan nan nan nan nan nan nan nan nan nan nan nan nan nan nan nan
nan 0 0 0 0 1 0 0 1 1 0 0 0 1 2 2 2 1 1 1 0 0 0 0 0 0 0 0 0 -0 -0 0 0 -0 -0 -0 0 0 1 1 1 1 nan
nan 1 1 1 0 1 1 1 1 1 0 0 1 1 2 2 1 1 1 0 0 0 0 0 0 0 0 0 0 -0 -0 0 0 0 -0 -0 0 0 0 1 1 1 nan
nan 1 1 1 1 0 0 1 0 0 0 0 0 1 1 1 1 1 -0 -0 0 0 0 1 0 0 0 -0 -0 -0 0 1 0 0 0 -0 -0 0 1 1 0 0 nan
nan 1 1 0 0 0 0 0 0 0 0 0 0 0 0 0 0 0 0 0 0 0 0 0 -0 -0 0 0 -0 -0 -0 0 1 1 0 -0 -0 0 0 1 1 0 nan
nan 0 0 -0 0 0 0 0 0 0 0 0 -0 -0 0 0 0 0 0 0 0 0 -0 -0 -0 -0 0 0 0 0 0 0 1 1 0 0 -0 1 1 0 0 0 nan
nan 0 0 0 0 0 0 -0 -0 0 0 0 0 0 0 -0 0 0 0 1 0 -0 -0 -0 -0 -0 0 0 0 1 0 0 0 1 1 0 1 1 1 0 -0 0 nan
nan 0 0 0 0 0 0 0 -0 -0 -0 0 0 0 0 0 -0 0 0 0 0 0 -0 -0 -0 -0 0 0 0 0 0 1 0 0 1 1 1 0 0 0 1 1 nan
nan 0 0 0 0 0 -0 0 0 0 0 0 0 -0 -0 -0 -0 -0 0 0 0 -0 -0 -0 -0 -0 -0 0 0 1 0 0 0 0 1 1 1 1 1 1 1 0 nan
nan 0 -0 -0 -0 0 0 0 0 -0 -0 0 0 0 -0 -0 0 -0 -0 0 0 0 -0 -1 -1 -0 -0 -0 -0 0 0 0 0 0 0 1 1 1 1 1 1 0 nan
nan 0 0 0 0 0 0 -0 0 0 0 -0 -0 0 -0 -0 0 0 -0 0 -0 -1 0 1 -0 -1 -1 -0 -0 0 -0 -0 0 0 0 1 1 1 0 0 0 0 nan
nan 0 0 0 -0 0 0 -0 0 0 -0 -0 -0 -0 -0 0 0 0 -0 -0 0 0 -1 -0 0 -0 -0 -0 -1 -1 0 0 0 1 0 0 0 -0 1 1 0 0 nan
nan 0 0 0 0 0 0 0 0 -0 0 0 -0 -0 -0 0 -0 -0 -1 -1 -0 -0 -0 -1 -1 -0 1 1 -0 -1 -1 -1 -1 -0 0 -0 0 1 1 0 0 0 nan
nan 0 0 0 0 0 0 0 0 0 0 0 0 0 -0 0 -0 -1 -1 -1 -1 -1 -1 -2 -2 -1 -0 -0 -0 -0 -0 -0 -0 -1 -0 -0 1 0 0 1 1 0 nan
nan 0 0 0 0 0 0 0 -0 -0 0 0 0 0 0 0 0 -0 -1 -1 -1 -1 -1 -1 -2 -2 -1 -1 -1 -1 -0 -0 -0 -1 -0 1 0 0 0 1 1 0 nan
nan 0 0 0 0 0 0 -0 -0 -0 -0 -0 0 0 0 0 0 -0 -0 -0 -0 -1 -1 -1 -1 -1 -2 -2 -2 -2 -1 -1 -0 -0 0 0 0 0 0 0 1 0 nan
nan 0 0 0 0 0 0 0 0 -0 -1 -1 -1 -1 -0 0 0 -0 -0 -0 -0 -1 -1 -1 -0 -1 -1 -2 -2 -2 -3 -2 -0 0 0 0 0 0 0 0 0 0 nan
nan 0 0 0 -0 0 0 0 0 0 0 0 -0 -1 -2 -1 -0 -1 -1 -1 -0 -0 -1 -1 -0 -1 -1 -1 -1 -2 -3 -3 -1 0 0 0 0 0 0 0 0 0 nan
nan 0 -0 -0 0 0 0 0 0 0 0 0 0 0 -0 -1 -0 -0 -1 -1 -1 -0 -1 -1 -1 -0 -1 -1 -1 -2 -2 -2 -1 0 0 0 0 0 0 0 0 0 nan
nan 0 0 0 0 0 0 0 0 0 -0 -0 -0 0 -0 -1 -0 -0 -0 -0 -0 -0 -0 -1 -1 -1 -1 -1 -2 -2 -2 -1 -1 -1 0 0 0 -0 0 0 0 0 nan
nan -0 0 0 0 0 0 0 0 0 -0 -0 0 -0 -1 -1 -0 -0 -0 -0 -0 -0 -0 -0 -0 -1 -1 -1 -2 -2 -2 -1 -1 -0 -0 0 0 -0 0 0 0 0 nan
nan 0 0 0 0 0 0 1 0 0 -0 -0 -0 0 -0 -1 -0 -0 -0 -0 -0 -0 -0 -0 -0 -0 -0 -1 -1 -2 -2 -1 -1 -1 -1 -0 -0 -0 0 0 0 0 nan
nan 0 0 0 -0 1 0 0 0 0 0 -0 -0 -0 -0 -0 -0 -0 -0 -0 -0 -0 -0 -0 -0 -0 -1 -0 -0 -1 -2 -2 -1 -1 -1 -1 -0 -0 -0 0 0 0 nan
nan 0 0 0 -0 0 1 0 -0 0 0 -0 -0 -0 -0 -0 -0 -0 -0 -0 -0 -0 -0 0 -1 -1 -0 -1 -1 -1 -1 -1 -1 -1 -1 -1 -1 -0 -0 -0 0 0 nan
nan 0 0 0 0 -0 -0 -0 0 -0 0 -0 -0 -0 -0 -0 -0 -0 -0 0 -0 -0 -0 -1 1 1 -1 -1 -1 -0 -0 -0 -1 -1 -1 -1 -1 -1 -0 -0 0 0 nan
nan nan nan nan nan nan nan nan nan nan nan nan nan nan nan nan nan nan nan nan nan nan nan nan nan nan nan nan nan nan nan nan nan nan nan nan nan nan nan nan nan nan nan
Wind_Speed
23 22 23 25 20 19 17 21 25 23 24 28 29 29 32 32 34 35 30 31 28 23 16 16 20 14 17 19 20 21 20 20 23 24 22 21 21 21 23 24 22 24 27
18 18 17 17 17 17 19 22 25 19 19 22 24 25 27 32 37 27 29 27 21 17 19 19 18 16 20 21 24 24 24 23 23 28 26 25 24 23 25 25 25 25 26
16 15 15 20 18 20 20 21 19 19 20 21 22 22 26 29 26 22 23 20 19 17 22 19 18 21 23 24 23 26 25 25 26 27 29 26 26 25 25 26 25 24 26
13 12 18 19 17 14 13 13 13 13 15 15 15 16 16 16 16 20 20 20 23 22 25 25 24 24 22 24 25 27 29 29 29 31 31 28 28 27 25 26 26 26 23
19 18 14 10 7 7 7 8 9 8 8 8 8 8 8 9 11 14 18 19 20 23 26 23 22 18 21 27 29 31 31 31 31 29 27 29 29 28 25 25 25 25 26
11 9 8 8 9 8 7 7 6 4 3 1 1 3 2 7 10 14 16 20 23 22 20 16 17 22 25 27 30 32 35 41 41 34 33 32 33 29 28 27 24 23 27
14 13 11 9 7 7 7 8 8 7 5 3 2 2 6 10 14 18 20 19 14 15 17 19 21 22 25 26 29 32 34 33 36 42 40 39 35 31 28 26 22 24 25
14 13 11 10 11 11 10 8 6 5 4 2 4 8 11 10 10 10 12 15 17 18 20 21 23 26 28 30 31 32 31 31 31 30 34 35 30 30 27 23 21 21 23
15 14 14 13 13 12 10 9 7 4 3 6 4 4 4 4 12 15 15 19 20 21 21 23 25 29 31 32 34 36 36 36 33 32 35 36 38 33 31 26 24 21 26
16 15 14 13 12 12 8 3 1 2 2 2 1 2 6 7 11 17 19 21 24 24 23 24 27 31 34 34 37 40 40 38 33 31 32 35 32 36 39 36 33 25 23
17 15 12 11 9 5 1 3 4 2 1 2 5 5 7 7 8 17 22 24 25 31 35 35 33 31 33 35 36 35 39 40 38 36 34 31 32 26 23 24 23 19 20
13 11 9 6 5 6 6 4 2 0 2 3 7 7 6 6 11 19 23 26 28 31 34 36 38 39 41 42 43 45 44 40 40 39 37 36 32 28 29 24 23 21 19
12 11 10 9 8 7 5 2 1 1 3 5 7 7 7 11 10 17 24 26 28 30 32 35 37 39 40 39 36 35 34 36 39 39 38 35 31 31 28 28 25 21 22
13 12 11 9 7 5 3 2 2 4 4 6 6 8 10 12 11 21 26 28 29 30 32 35 36 34 32 30 31 33 32 33 34 34 36 34 29 25 30 32 25 22 21
13 12 10 8 7 4 3 3 4 8 8 8 10 12 14 15 17 21 24 26 27 28 31 30 28 28 29 29 29 32 31 30 31 31 37 31 27 25 27 27 25 22 20
12 11 10 7 6 5 3 5 8 10 10 11 12 12 15 18 19 21 23 24 24 25 24 23 27 27 28 30 31 34 27 29 29 28 30 24 25 23 24 27 28 22 18
10 9 8 6 5 4 2 2 2 11 14 16 17 16 18 18 19 22 23 23 20 19 17 20 23 26 28 28 28 30 35 33 25 27 26 22 22 22 22 28 26 23 19
8 7 5 4 3 2 4 5 5 6 6 6 12 18 20 20 20 22 22 19 16 16 17 20 22 25 26 28 28 29 32 32 27 27 22 21 20 22 24 27 27 24 19
4 4 4 4 5 6 6 5 6 6 7 8 9 10 14 23 20 17 18 14 16 17 18 20 21 24 26 27 27 28 28 25 12 12 16 17 18 20 23 25 26 24 19
6 5 5 4 5 5 5 5 5 6 7 8 9 11 14 20 19 14 15 16 16 18 19 20 21 23 25 25 26 27 27 25 22 14 13 15 16 18 21 24 25 21 20
5 5 5 5 5 6 7 7 7 7 8 9 9 13 20 21 14 15 15 16 17 19 20 21 23 24 24 24 24 25 25 23 19 11 4 12 15 19 21 24 22 19 20
6 6 6 7 7 8 9 9 9 8 8 9 11 12 19 14 13 15 15 17 19 18 20 22 23 23 23 22 23 24 23 22 18 16 8 5 11 17 19 22 20 20 22
6 7 7 8 9 11 9 9 8 9 9 10 11 12 12 13 14 15 16 18 19 20 21 22 23 24 24 22 22 21 23 21 20 17 18 13 8 12 18 21 19 21 21
7 8 9 10 11 11 9 11 9 11 11 11 11 12 13 14 15 16 18 18 20 22 23 23 24 27 24 24 24 22 22 21 20 19 15 15 14 9 15 19 19 21 20
9 10 10 9 9 9 10 10 11 11 11 11 12 13 14 15 15 16 18 19 22 23 23 28 26 23 25 26 25 23 20 20 19 18 16 15 14 15 11 19 20 20 20
12 12 11 10 9 10 11 11 11 11 12 12 13 14 14 15 16 17 18 20 21 25 27 24 24 24 24 24 22 20 20 19 19 17 16 15 12 10 9 15 19 20 19
Wind_Direction
214 213 212 228 237 246 250 249 254 270 257 253 255 259 256 247 240 242 235 236 244 241 267 284 292 242 254 253 258 257 260 262 273 280 280 282 282 283 284 280 281 285 287
206 211 221 230 231 234 237 240 246 257 259 257 261 259 253 236 236 237 232 235 242 269 286 280 277 246 254 260 257 258 263 266 270 278 279 280 283 284 281 280 279 285 284
196 199 202 216 216 225 232 237 241 250 252 251 251 250 253 243 246 241 231 244 268 285 292 280 255 254 252 254 262 261 263 266 267 272 276 281 282 281 281 279 280 282 285
173 176 210 223 229 234 233 236 242 245 249 245 247 255 253 250 244 231 240 270 286 285 296 276 265 259 265 264 268 267 268 268 264 267 270 276 277 279 279 279 279 281 282
193 202 208 213 225 233 239 237 230 226 234 241 246 254 259 258 257 259 275 283 288 282 281 279 278 276 272 265 263 263 264 270 269 264 264 270 275 277 280 284 280 282 284
153 164 163 153 157 166 170 166 159 170 181 206 343 355 280 245 262 282 284 275 282 284 287 290 283 272 276 280 281 279 270 261 262 268 268 270 276 278 270 279 277 280 284
142 144 152 156 156 155 145 134 123 122 135 127 137 264 272 273 279 279 282 283 285 282 278 277 278 276 275 276 277 276 276 269 264 261 262 268 273 274 270 275 273 275 278
135 138 137 133 131 129 131 129 122 116 131 195 269 277 279 292 297 297 291 290 292 286 283 281 279 279 279 279 277 271 270 274 272 270 264 268 272 268 265 268 268 271 275
127 129 130 129 128 128 129 132 152 197 242 282 322 357 337 313 292 294 290 286 287 286 285 283 280 280 277 277 277 276 270 268 265 266 269 268 275 260 251 253 259 267 270
130 130 129 131 137 155 169 162 266 346 88 125 181 294 289 310 302 289 288 289 290 292 291 288 285 282 284 283 279 273 272 269 270 269 267 270 263 256 261 258 260 255 260
134 139 151 160 161 145 139 95 117 149 162 274 305 297 304 302 303 288 286 288 287 289 293 294 291 286 278 275 274 275 271 275 274 269 266 262 267 252 251 257 254 255 250
141 144 148 146 128 125 135 126 116 171 313 318 300 308 306 287 283 281 285 290 296 298 299 300 298 296 289 282 275 273 274 280 269 266 262 260 265 246 248 240 247 256 250
137 135 136 134 129 131 137 133 143 326 307 294 307 308 308 294 309 295 293 307 307 309 309 309 309 306 302 294 289 284 282 279 276 274 264 256 262 259 252 239 239 238 248
142 139 138 138 137 133 134 127 188 249 278 300 305 302 296 303 310 296 311 316 318 318 317 317 317 317 317 314 307 301 288 285 272 271 263 259 259 253 246 245 236 234 243
146 145 145 150 148 143 181 205 274 290 297 294 292 299 301 308 301 312 315 318 320 320 319 328 328 315 314 311 305 301 296 284 279 269 259 250 260 253 252 237 233 233 239
151 156 167 171 175 154 173 302 300 298 298 302 303 303 305 308 312 314 316 317 320 319 327 325 321 321 315 309 313 308 308 292 280 268 264 253 248 249 250 239 234 233 235
159 175 182 180 176 203 233 251 255 306 312 318 318 319 316 318 319 319 318 319 326 325 323 319 318 320 324 320 316 311 307 303 283 261 262 241 246 252 246 241 233 230 230
182 178 163 162 200 224 247 261 274 277 282 292 308 307 312 317 321 318 318 329 327 327 323 320 320 319 321 323 322 318 321 306 279 257 247 243 246 250 245 238 240 231 226
172 187 205 240 256 265 271 277 276 286 287 293 300 307 297 305 322 331 329 326 322 322 321 319 318 318 319 320 324 321 325 331 280 234 239 246 245 248 249 246 236 230 228
222 241 249 261 278 280 286 281 283 288 290 294 298 298 298 313 324 325 320 319 319 316 316 317 315 314 317 320 322 325 326 330 9 259 252 258 254 251 250 241 233 227 225
232 250 263 259 261 274 277 283 284 291 291 293 297 298 299 312 322 314 315 316 314 313 314 313 313 312 315 318 320 323 325 322 336 12 307 269 263 260 253 239 232 230 217
251 267 270 273 280 281 283 283 287 290 293 296 297 297 305 323 308 308 313 309 310 313 308 308 307 309 311 313 317 317 320 319 311 312 317 266 283 271 252 240 230 224 214
268 274 281 283 283 289 291 291 294 291 292 294 299 302 304 305 305 309 309 310 312 308 308 307 307 306 308 309 308 312 310 311 308 305 301 280 272 276 253 238 230 217 214
289 288 287 289 288 286 288 290 294 297 297 298 301 302 302 303 306 308 310 310 308 309 309 310 305 307 309 306 307 305 303 301 299 301 299 288 262 261 257 240 230 218 216
300 298 298 293 290 291 293 295 291 292 295 299 299 298 301 304 307 309 310 309 309 313 310 310 315 312 306 306 306 304 300 294 291 291 290 288 278 249 258 242 231 223 219
301 297 293 291 289 289 290 289 290 292 295 297 297 302 303 305 307 311 310 312 314 310 316 319 317 318 318 316 313 305 299 295 286 279 281 282 279 248 269 249 233 225 219
Height
1492 1494 1497 1498 1499 1499 1501 1503 1505 1506 1507 1508 1510 1511 1511 1512 1512 1512 1515 1517 1520 1518 1522 1523 1524 1525 1528 1529 1529 1528 1527 1526 1523 1521 1519 1517 1516 1514 1512 1509 1507 1505 1502
1487 1490 1491 1491 1493 1495 1497 1499 1500 1501 1502 1504 1505 1505 1504 1505 1504 1504 1511 1514 1515 1516 1518 1519 1518 1520 1521 1522 1522 1521 1521 1520 1518 1514 1512 1511 1509 1507 1505 1503 1500 1498 1496
1484 1487 1488 1487 1490 1492 1494 1495 1496 1497 1498 1499 1499 1500 1499 1501 1503 1505 1509 1511 1512 1512 1513 1513 1513 1514 1514 1514 1515 1515 1514 1513 1511 1508 1504 1503 1501 1500 1498 1496 1494 1491 1489
1481 1484 1482 1483 1486 1488 1489 1490 1491 1491 1492 1493 1494 1495 1496 1498 1500 1502 1506 1506 1507 1507 1507 1507 1507 1507 1507 1508 1508 1508 1506 1504 1502 1500 1498 1496 1495 1493 1491 1489 1486 1485 1482
1473 1476 1479 1481 1482 1484 1485 1485 1486 1488 1489 1491 1492 1493 1494 1496 1499 1502 1502 1502 1501 1501 1501 1501 1500 1501 1501 1502 1501 1499 1498 1496 1494 1491 1489 1488 1486 1486 1484 1482 1479 1478 1476
1472 1474 1475 1478 1480 1480 1481 1483 1484 1486 1487 1489 1490 1492 1494 1496 1497 1498 1498 1497 1496 1496 1496 1496 1496 1497 1495 1494 1492 1490 1489 1487 1485 1484 1480 1479 1478 1477 1476 1475 1473 1471 1469
1469 1471 1473 1475 1476 1478 1480 1482 1484 1485 1488 1489 1490 1492 1493 1493 1494 1494 1493 1492 1492 1493 1493 1493 1492 1491 1489 1487 1484 1481 1479 1477 1475 1473 1471 1471 1470 1470 1469 1467 1466 1465 1463
1468 1469 1471 1473 1475 1478 1480 1481 1483 1484 1486 1488 1488 1489 1489 1490 1490 1489 1489 1488 1488 1488 1488 1487 1485 1484 1482 1480 1477 1474 1470 1467 1464 1463 1462 1460 1461 1461 1461 1461 1460 1458 1456
1468 1469 1471 1473 1475 1477 1479 1481 1482 1483 1484 1485 1485 1486 1488 1490 1488 1487 1486 1485 1483 1482 1482 1481 1479 1476 1473 1471 1468 1464 1461 1459 1459 1457 1454 1452 1451 1451 1452 1453 1452 1452 1449
1467 1469 1472 1473 1475 1476 1477 1480 1481 1482 1485 1486 1487 1487 1486 1487 1486 1484 1482 1480 1477 1475 1474 1472 1470 1468 1465 1462 1459 1455 1451 1449 1449 1447 1445 1442 1441 1441 1442 1443 1444 1443 1442
1466 1468 1468 1470 1473 1476 1478 1480 1482 1483 1484 1483 1482 1483 1483 1484 1484 1479 1477 1475 1471 1467 1464 1461 1459 1457 1454 1450 1447 1444 1440 1440 1438 1437 1435 1435 1433 1433 1433 1433 1434 1433 1434
1464 1466 1468 1470 1473 1476 1479 1480 1481 1482 1481 1481 1481 1481 1481 1480 1479 1475 1471 1469 1467 1463 1458 1454 1449 1445 1441 1437 1435 1432 1430 1428 1424 1424 1424 1424 1425 1424 1425 1427 1427 1426 1426
1464 1467 1469 1471 1473 1476 1477 1478 1480 1480 1480 1480 1479 1478 1478 1476 1475 1470 1466 1464 1461 1456 1452 1446 1440 1434 1429 1423 1420 1419 1418 1416 1415 1413 1413 1413 1415 1417 1418 1419 1420 1421 1422
1462 1466 1468 1470 1471 1473 1474 1474 1475 1473 1473 1474 1474 1474 1472 1469 1467 1461 1459 1456 1453 1449 1444 1438 1432 1426 1420 1416 1411 1409 1406 1405 1404 1403 1403 1404 1406 1408 1409 1410 1412 1414 1415
1462 1464 1466 1467 1470 1471 1471 1471 1470 1470 1470 1469 1468 1468 1466 1463 1460 1456 1453 1450 1447 1443 1436 1431 1427 1423 1417 1412 1408 1404 1400 1398 1396 1395 1394 1396 1398 1400 1402 1404 1406 1407 1408
1460 1461 1462 1464 1465 1468 1467 1466 1467 1466 1465 1464 1462 1463 1462 1458 1455 1451 1448 1445 1441 1436 1432 1429 1424 1419 1413 1408 1403 1397 1393 1391 1389 1389 1388 1389 1391 1393 1395 1397 1399 1400 1402
1458 1458 1460 1461 1462 1463 1464 1464 1466 1463 1460 1458 1457 1455 1454 1452 1449 1446 1442 1439 1435 1432 1430 1426 1421 1415 1409 1404 1398 1394 1387 1383 1381 1381 1382 1383 1385 1387 1389 1390 1392 1394 1395
1458 1459 1459 1459 1460 1460 1459 1458 1460 1459 1459 1458 1454 1452 1449 1447 1444 1441 1437 1433 1432 1429 1426 1422 1417 1411 1406 1400 1394 1388 1382 1376 1373 1373 1375 1377 1380 1381 1383 1384 1386 1388 1390
1459 1458 1457 1456 1457 1457 1456 1454 1455 1454 1455 1453 1452 1451 1447 1441 1439 1436 1434 1431 1428 1425 1422 1418 1414 1408 1402 1396 1391 1385 1379 1372 1365 1367 1370 1372 1374 1376 1377 1378 1380 1382 1385
1454 1455 1455 1453 1453 1454 1454 1453 1452 1451 1450 1449 1448 1446 1442 1437 1434 1433 1431 1427 1424 1421 1416 1412 1408 1404 1399 1393 1387 1382 1375 1371 1365 1367 1367 1368 1369 1371 1372 1373 1374 1377 1379
1451 1452 1452 1451 1449 1449 1450 1450 1448 1448 1447 1445 1443 1440 1436 1433 1430 1430 1426 1423 1420 1416 1412 1408 1403 1399 1394 1389 1384 1379 1374 1370 1365 1361 1363 1365 1365 1366 1366 1367 1370 1372 1375
1450 1449 1449 1448 1446 1446 1446 1445 1443 1442 1441 1440 1438 1436 1431 1429 1428 1425 1422 1419 1414 1411 1408 1403 1398 1394 1390 1385 1381 1376 1372 1369 1365 1362 1361 1360 1362 1362 1362 1363 1366 1367 1370
1447 1446 1445 1444 1442 1443 1443 1441 1440 1438 1436 1434 1432 1430 1428 1426 1423 1419 1416 1412 1409 1405 1401 1397 1393 1388 1384 1380 1377 1373 1369 1366 1364 1361 1360 1358 1358 1358 1359 1360 1362 1363 1366
1443 1443 1442 1440 1439 1438 1437 1435 1435 1434 1431 1430 1427 1425 1424 1421 1418 1414 1411 1407 1403 1399 1395 1391 1387 1381 1377 1374 1371 1367 1365 1362 1360 1358 1357 1355 1354 1354 1355 1356 1358 1360 1362
1440 1439 1437 1437 1438 1436 1434 1433 1431 1429 1427 1425 1422 1420 1418 1415 1412 1408 1405 1402 1397 1392 1389 1384 1379 1376 1372 1367 1364 1361 1359 1357 1355 1354 1353 1352 1351 1351 1351 1352 1354 1356 1358
1436 1435 1434 1434 1433 1431 1430 1429 1427 1424 1422 1419 1417 1414 1412 1409 1405 1402 1399 1394 1391 1387 1382 1378 1374 1369 1365 1361 1358 1355 1353 1351 1350 1349 1349 1348 1347 1347 1348 1348 1350 1352 1354